QPF
0.00 0.00 0.00 0.00 0.00 0.00 0.00 0.00 0.00 0.00 0.00 0.00 0.00 0.00 0.00 0.00 0.00 0.00 0.00 0.00 0.00 0.00 0.00 0.00 0.00 0.01 0.01 0.01 0.01 0.01 0.01 0.00 0.00 0.00 0.01 0.01 0.01 0.01 0.01 0.00 0.00 0.00 0.01 0.01 0.02 0.01 0.00 0.00 0.00
0.00 0.00 0.00 0.00 0.00 0.00 0.00 0.00 0.00 0.00 0.00 0.00 0.00 0.00 0.00 0.00 0.00 0.00 0.00 0.00 0.00 0.00 0.00 0.00 0.00 0.01 0.01 0.01 0.01 0.01 0.01 0.01 0.00 0.00 0.00 0.01 0.01 0.01 0.01 0.01 0.01 0.00 0.00 0.01 0.01 0.00 0.00 0.00 0.00
0.00 0.00 0.00 0.00 0.00 0.00 0.00 0.00 0.00 0.00 0.00 0.00 0.00 0.00 0.00 0.00 0.00 0.00 0.00 0.00 0.00 0.00 0.00 0.00 0.00 0.01 0.01 0.01 0.01 0.01 0.01 0.00 0.00 0.00 0.00 0.01 0.01 0.00 0.01 0.01 0.00 0.00 0.00 0.00 0.00 0.00 0.00 0.00 0.00
0.00 0.00 0.00 0.00 0.00 0.00 0.00 0.00 0.00 0.00 0.00 0.00 0.00 0.00 0.00 0.00 0.00 0.00 0.00 0.00 0.00 0.00 0.00 0.00 0.00 0.01 0.01 0.01 0.01 0.01 0.01 0.00 0.01 0.01 0.01 0.01 0.00 0.00 0.00 0.00 0.00 0.00 0.00 0.00 0.00 0.00 0.00 0.00 0.00
0.00 0.00 0.00 0.00 0.00 0.00 0.00 0.00 0.00 0.00 0.00 0.00 0.00 0.00 0.00 0.00 0.00 0.00 0.00 0.00 0.00 0.00 0.00 0.00 0.01 0.01 0.01 0.01 0.01 0.01 0.00 0.00 0.00 0.00 0.01 0.00 0.00 0.00 0.00 0.00 0.00 0.00 0.00 0.00 0.00 0.00 0.00 0.00 0.00
0.00 0.00 0.00 0.00 0.00 0.00 0.00 0.00 0.00 0.00 0.00 0.00 0.00 0.00 0.00 0.00 0.00 0.00 0.00 0.00 0.00 0.00 0.00 0.01 0.01 0.01 0.01 0.01 0.01 0.01 0.00 0.00 0.00 0.00 0.01 0.00 0.00 0.00 0.00 0.00 0.00 0.00 0.00 0.00 0.00 0.00 0.00 0.00 0.00
0.00 0.00 0.00 0.00 0.00 0.00 0.00 0.00 0.00 0.00 0.00 0.00 0.00 0.00 0.00 0.00 0.00 0.00 0.00 0.00 0.00 0.00 0.00 0.01 0.01 0.01 0.01 0.01 0.01 0.01 0.00 0.00 0.00 0.01 0.00 0.00 0.00 0.00 0.00 0.00 0.00 0.00 0.00 0.00 0.00 0.00 0.00 0.00 0.00
0.01 0.00 0.00 0.00 0.00 0.00 0.00 0.00 0.00 0.00 0.00 0.00 0.00 0.00 0.00 0.00 0.00 0.00 0.00 0.00 0.00 0.00 0.00 0.01 0.01 0.01 0.01 0.01 0.01 0.01 0.01 0.01 0.01 0.00 0.00 0.00 0.00 0.00 0.00 0.00 0.00 0.00 0.00 0.00 0.00 0.00 0.00 0.00 0.00
0.01 0.01 0.00 0.00 0.00 0.00 0.00 0.00 0.00 0.00 0.00 0.00 0.00 0.00 0.00 0.00 0.00 0.00 0.00 0.00 0.00 0.00 0.00 0.01 0.01 0.01 0.01 0.01 0.01 0.01 0.01 0.01 0.01 0.00 0.00 0.00 0.00 0.00 0.00 0.00 0.00 0.00 0.00 0.00 0.00 0.00 0.00 0.00 0.00
0.01 0.00 0.00 0.00 0.00 0.00 0.00 0.00 0.00 0.00 0.00 0.00 0.00 0.00 0.00 0.00 0.00 0.00 0.00 0.00 0.00 0.00 0.00 0.00 0.01 0.01 0.01 0.01 0.01 0.01 0.01 0.01 0.01 0.00 0.00 0.00 0.00 0.00 0.00 0.00 0.00 0.00 0.00 0.00 0.00 0.00 0.00 0.00 0.00
0.01 0.00 0.00 0.00 0.00 0.00 0.00 0.00 0.00 0.00 0.00 0.00 0.00 0.00 0.00 0.00 0.00 0.00 0.00 0.00 0.00 0.00 0.00 0.00 0.01 0.01 0.01 0.00 0.01 0.01 0.01 0.01 0.00 0.00 0.00 0.00 0.00 0.00 0.00 0.00 0.00 0.00 0.00 0.00 0.00 0.00 0.00 0.00 0.00
0.01 0.00 0.00 0.00 0.00 0.00 0.00 0.00 0.00 0.00 0.00 0.00 0.00 0.00 0.00 0.00 0.00 0.00 0.00 0.00 0.00 0.00 0.00 0.00 0.00 0.01 0.01 0.00 0.00 0.01 0.01 0.01 0.00 0.00 0.00 0.00 0.00 0.00 0.00 0.00 0.00 0.00 0.00 0.00 0.00 0.00 0.00 0.00 0.00
0.01 0.00 0.00 0.00 0.00 0.00 0.00 0.00 0.00 0.00 0.00 0.00 0.00 0.00 0.00 0.00 0.00 0.00 0.00 0.00 0.00 0.00 0.00 0.00 0.00 0.01 0.01 0.01 0.01 0.01 0.00 0.00 0.00 0.00 0.00 0.00 0.00 0.00 0.00 0.00 0.00 0.00 0.00 0.00 0.00 0.00 0.00 0.00 0.00
0.01 0.01 0.00 0.00 0.00 0.00 0.00 0.00 0.00 0.00 0.00 0.00 0.00 0.00 0.00 0.00 0.00 0.00 0.00 0.00 0.00 0.00 0.00 0.00 0.00 0.01 0.01 0.01 0.00 0.00 0.00 0.00 0.00 0.00 0.00 0.00 0.00 0.00 0.00 0.00 0.00 0.00 0.00 0.00 0.00 0.00 0.00 0.00 0.00
0.02 0.02 0.01 0.00 0.00 0.00 0.00 0.00 0.00 0.00 0.00 0.00 0.00 0.00 0.00 0.00 0.00 0.00 0.00 0.00 0.00 0.00 0.00 0.00 0.00 0.00 0.01 0.00 0.00 0.00 0.00 0.00 0.00 0.00 0.00 0.00 0.00 0.00 0.00 0.00 0.00 0.00 0.00 0.00 0.00 0.00 0.00 0.00 0.00
0.03 0.04 0.02 0.01 0.00 0.00 0.00 0.00 0.00 0.00 0.00 0.00 0.00 0.00 0.00 0.00 0.00 0.00 0.00 0.00 0.00 0.00 0.00 0.00 0.00 0.00 0.00 0.00 0.00 0.00 0.00 0.00 0.00 0.00 0.00 0.00 0.00 0.00 0.00 0.00 0.00 0.00 0.00 0.00 0.00 0.00 0.00 0.00 0.00
0.05 0.05 0.02 0.01 0.00 0.00 0.01 0.00 0.00 0.00 0.00 0.00 0.00 0.00 0.00 0.00 0.00 0.00 0.00 0.00 0.00 0.00 0.00 0.00 0.00 0.00 0.00 0.00 0.00 0.00 0.00 0.00 0.00 0.00 0.00 0.00 0.00 0.00 0.00 0.00 0.00 0.00 0.00 0.00 0.00 0.00 0.00 0.00 0.00
0.05 0.02 0.01 0.00 0.00 0.00 0.01 0.00 0.00 0.00 0.00 0.00 0.00 0.00 0.00 0.00 0.00 0.00 0.00 0.00 0.00 0.00 0.00 0.00 0.00 0.00 0.00 0.00 0.00 0.00 0.00 0.00 0.00 0.00 0.00 0.00 0.00 0.00 0.00 0.00 0.00 0.00 0.00 0.00 0.00 0.00 0.00 0.00 0.00
0.02 0.01 0.01 0.00 0.00 0.00 0.00 0.00 0.00 0.00 0.00 0.00 0.00 0.00 0.00 0.00 0.00 0.00 0.00 0.00 0.00 0.00 0.00 0.00 0.00 0.00 0.00 0.00 0.00 0.00 0.00 0.00 0.00 0.00 0.00 0.00 0.00 0.00 0.00 0.00 0.00 0.00 0.00 0.00 0.00 0.00 0.00 0.00 0.00
0.04 0.03 0.02 0.01 0.00 0.00 0.00 0.00 0.00 0.00 0.00 0.00 0.00 0.00 0.00 0.00 0.00 0.00 0.00 0.00 0.00 0.00 0.00 0.00 0.00 0.00 0.00 0.00 0.00 0.00 0.00 0.00 0.00 0.00 0.00 0.00 0.00 0.00 0.00 0.00 0.00 0.00 0.01 0.00 0.00 0.00 0.00 0.00 0.00
0.05 0.04 0.03 0.02 0.01 0.01 0.01 0.01 0.00 0.00 0.00 0.00 0.00 0.00 0.00 0.00 0.00 0.00 0.00 0.00 0.00 0.00 0.00 0.00 0.00 0.00 0.00 0.00 0.00 0.00 0.00 0.00 0.00 0.00 0.00 0.00 0.00 0.00 0.00 0.00 0.00 0.00 0.00 0.01 0.01 0.00 0.00 0.00 0.00
0.06 0.03 0.03 0.03 0.05 0.04 0.02 0.02 0.00 0.00 0.00 0.00 0.00 0.00 0.00 0.00 0.00 0.00 0.00 0.00 0.00 0.00 0.00 0.00 0.00 0.00 0.00 0.00 0.00 0.00 0.00 0.00 0.00 0.00 0.00 0.00 0.00 0.00 0.00 0.00 0.00 0.00 0.00 0.00 0.00 0.00 0.00 0.00 0.00
0.06 0.03 0.04 0.05 0.07 0.08 0.04 0.03 0.01 0.00 0.00 0.00 0.00 0.00 0.00 0.00 0.00 0.00 0.00 0.00 0.00 0.00 0.00 0.00 0.00 0.00 0.00 0.00 0.00 0.00 0.00 0.00 0.00 0.00 0.00 0.00 0.00 0.00 0.00 0.00 0.00 0.00 0.00 0.00 0.00 0.00 0.00 0.00 0.01
0.07 0.07 0.09 0.10 0.13 0.17 0.06 0.04 0.02 0.00 0.00 0.00 0.00 0.00 0.00 0.00 0.00 0.00 0.00 0.00 0.00 0.00 0.00 0.00 0.00 0.00 0.00 0.00 0.00 0.00 0.00 0.00 0.00 0.00 0.00 0.00 0.00 0.00 0.00 0.00 0.00 0.00 0.00 0.00 0.00 0.00 0.00 0.00 0.00
0.16 0.18 0.25 0.29 0.29 0.17 0.03 0.03 0.02 0.00 0.00 0.00 0.00 0.00 0.00 0.00 0.00 0.00 0.00 0.00 0.00 0.00 0.00 0.00 0.00 0.00 0.00 0.00 0.00 0.00 0.00 0.00 0.00 0.00 0.00 0.00 0.00 0.00 0.00 0.00 0.00 0.00 0.00 0.00 0.00 0.00 0.00 0.00 0.01
0.19 0.19 0.19 0.19 0.14 0.05 0.01 0.02 0.01 0.00 0.00 0.00 0.00 0.00 0.00 0.00 0.00 0.00 0.00 0.00 0.00 0.00 0.00 0.00 0.00 0.00 0.00 0.00 0.00 0.00 0.00 0.00 0.00 0.00 0.00 0.00 0.00 0.00 0.00 0.00 0.00 0.00 0.00 0.00 0.00 0.01 0.01 0.01 0.01
0.15 0.17 0.11 0.10 0.06 0.03 0.02 0.01 0.00 0.00 0.00 0.00 0.00 0.00 0.00 0.00 0.00 0.00 0.00 0.00 0.00 0.00 0.00 0.00 0.00 0.00 0.00 0.00 0.00 0.00 0.00 0.00 0.00 0.00 0.00 0.00 0.00 0.00 0.00 0.00 0.00 0.00 0.00 0.00 0.00 0.00 0.01 0.01 0.01
0.11 0.13 0.14 0.18 0.14 0.07 0.02 0.01 0.00 0.00 0.00 0.00 0.00 0.00 0.00 0.00 0.00 0.00 0.00 0.00 0.00 0.00 0.00 0.00 0.00 0.00 0.00 0.00 0.00 0.00 0.00 0.00 0.00 0.00 0.00 0.00 0.00 0.00 0.00 0.00 0.00 0.00 0.00 0.00 0.00 0.00 0.00 0.00 0.00
0.10 0.14 0.22 0.21 0.12 0.06 0.03 0.01 0.00 0.00 0.00 0.00 0.00 0.00 0.00 0.00 0.00 0.00 0.00 0.00 0.00 0.00 0.00 0.00 0.00 0.00 0.00 0.00 0.00 0.00 0.00 0.00 0.00 0.00 0.00 0.00 0.00 0.00 0.00 0.00 0.00 0.00 0.00 0.00 0.00 0.00 0.00 0.00 0.00
0.09 0.12 0.15 0.19 0.13 0.04 0.02 0.01 0.00 0.00 0.00 0.00 0.00 0.00 0.00 0.00 0.00 0.00 0.00 0.00 0.00 0.00 0.00 0.00 0.00 0.00 0.00 0.00 0.00 0.00 0.00 0.00 0.00 0.00 0.00 0.00 0.00 0.00 0.00 0.00 0.00 0.00 0.00 0.00 0.00 0.00 0.00 0.00 0.00
MSLP
1010.65 1011.11 1011.56 1011.87 1011.93 1011.66 1011.07 1010.21 1009.18 1008.14 1007.23 1006.56 1006.20 1006.16 1006.39 1006.83 1007.38 1007.96 1008.51 1009.00 1009.44 1009.87 1010.30 1010.76 1011.27 1011.81 1012.35 1012.87 1013.34 1013.75 1014.10 1014.43 1014.75 1015.08 1015.44 1015.80 1016.17 1016.50 1016.77 1016.99 1017.14 1017.24 1017.32 1017.41 1017.51 1017.64 1017.77 1017.89 1017.98
1010.87 1011.34 1011.73 1011.90 1011.77 1011.30 1010.51 1009.48 1008.36 1007.29 1006.42 1005.85 1005.60 1005.68 1006.01 1006.51 1007.08 1007.65 1008.17 1008.64 1009.09 1009.54 1010.04 1010.59 1011.20 1011.84 1012.46 1013.03 1013.52 1013.93 1014.28 1014.60 1014.91 1015.25 1015.62 1016.01 1016.39 1016.75 1017.04 1017.26 1017.41 1017.52 1017.61 1017.70 1017.82 1017.96 1018.10 1018.24 1018.33
1011.07 1011.50 1011.80 1011.83 1011.52 1010.86 1009.91 1008.77 1007.61 1006.56 1005.78 1005.32 1005.21 1005.40 1005.81 1006.36 1006.93 1007.47 1007.95 1008.40 1008.84 1009.32 1009.87 1010.50 1011.20 1011.92 1012.60 1013.22 1013.73 1014.14 1014.48 1014.78 1015.09 1015.42 1015.80 1016.20 1016.60 1016.96 1017.26 1017.49 1017.64 1017.75 1017.85 1017.95 1018.08 1018.24 1018.40 1018.54 1018.63
1011.16 1011.54 1011.72 1011.60 1011.14 1010.33 1009.28 1008.09 1006.94 1005.97 1005.30 1004.97 1004.99 1005.29 1005.78 1006.35 1006.91 1007.42 1007.86 1008.28 1008.71 1009.21 1009.81 1010.51 1011.27 1012.05 1012.78 1013.42 1013.95 1014.36 1014.69 1014.98 1015.27 1015.61 1015.98 1016.39 1016.79 1017.16 1017.46 1017.69 1017.85 1017.97 1018.07 1018.19 1018.33 1018.50 1018.67 1018.81 1018.91
1011.11 1011.40 1011.46 1011.21 1010.61 1009.71 1008.61 1007.44 1006.35 1005.49 1004.96 1004.78 1004.93 1005.32 1005.85 1006.44 1006.98 1007.46 1007.88 1008.27 1008.70 1009.22 1009.86 1010.60 1011.40 1012.22 1012.98 1013.63 1014.16 1014.56 1014.88 1015.16 1015.45 1015.78 1016.16 1016.57 1016.98 1017.36 1017.67 1017.91 1018.08 1018.20 1018.32 1018.44 1018.59 1018.76 1018.93 1019.07 1019.17
1010.89 1011.07 1011.01 1010.63 1009.94 1009.00 1007.91 1006.80 1005.83 1005.11 1004.73 1004.68 1004.93 1005.40 1005.97 1006.56 1007.09 1007.54 1007.94 1008.33 1008.77 1009.31 1009.97 1010.73 1011.56 1012.39 1013.15 1013.80 1014.32 1014.71 1015.03 1015.31 1015.61 1015.95 1016.34 1016.76 1017.18 1017.57 1017.89 1018.14 1018.33 1018.47 1018.59 1018.72 1018.86 1019.02 1019.18 1019.30 1019.38
1010.54 1010.60 1010.40 1009.93 1009.18 1008.23 1007.20 1006.19 1005.36 1004.80 1004.55 1004.62 1004.96 1005.46 1006.05 1006.63 1007.15 1007.60 1008.00 1008.40 1008.86 1009.42 1010.09 1010.87 1011.70 1012.51 1013.26 1013.89 1014.40 1014.80 1015.12 1015.42 1015.74 1016.10 1016.51 1016.95 1017.39 1017.79 1018.13 1018.39 1018.59 1018.74 1018.87 1019.00 1019.13 1019.27 1019.39 1019.49 1019.55
1010.12 1010.04 1009.72 1009.16 1008.39 1007.48 1006.52 1005.65 1004.95 1004.53 1004.41 1004.56 1004.94 1005.47 1006.05 1006.61 1007.12 1007.57 1007.98 1008.41 1008.90 1009.49 1010.18 1010.95 1011.76 1012.55 1013.27 1013.88 1014.38 1014.78 1015.13 1015.46 1015.82 1016.21 1016.65 1017.12 1017.58 1017.99 1018.35 1018.63 1018.84 1019.00 1019.14 1019.25 1019.37 1019.47 1019.56 1019.61 1019.64
1009.70 1009.48 1009.05 1008.43 1007.65 1006.79 1005.94 1005.20 1004.64 1004.33 1004.29 1004.49 1004.87 1005.38 1005.93 1006.47 1006.96 1007.42 1007.86 1008.33 1008.85 1009.47 1010.16 1010.93 1011.71 1012.46 1013.15 1013.74 1014.24 1014.66 1015.04 1015.42 1015.82 1016.27 1016.75 1017.24 1017.71 1018.15 1018.51 1018.80 1019.03 1019.20 1019.33 1019.44 1019.53 1019.60 1019.64 1019.66 1019.66
1009.33 1008.97 1008.45 1007.79 1007.03 1006.24 1005.49 1004.87 1004.42 1004.20 1004.20 1004.40 1004.75 1005.20 1005.69 1006.19 1006.67 1007.13 1007.60 1008.11 1008.67 1009.31 1010.02 1010.77 1011.52 1012.24 1012.89 1013.47 1013.98 1014.43 1014.86 1015.29 1015.75 1016.24 1016.76 1017.27 1017.77 1018.21 1018.58 1018.87 1019.10 1019.28 1019.41 1019.51 1019.59 1019.64 1019.66 1019.65 1019.62
1009.01 1008.55 1007.96 1007.28 1006.55 1005.83 1005.19 1004.67 1004.31 1004.14 1004.14 1004.30 1004.58 1004.94 1005.35 1005.79 1006.24 1006.70 1007.20 1007.75 1008.35 1009.02 1009.73 1010.46 1011.19 1011.88 1012.51 1013.08 1013.61 1014.09 1014.57 1015.07 1015.58 1016.12 1016.67 1017.21 1017.71 1018.15 1018.52 1018.82 1019.05 1019.24 1019.38 1019.48 1019.56 1019.60 1019.61 1019.60 1019.56
1008.75 1008.20 1007.55 1006.87 1006.18 1005.55 1005.00 1004.57 1004.27 1004.12 1004.09 1004.18 1004.37 1004.62 1004.93 1005.29 1005.70 1006.16 1006.68 1007.25 1007.89 1008.57 1009.29 1010.01 1010.72 1011.39 1012.02 1012.60 1013.15 1013.68 1014.21 1014.77 1015.33 1015.92 1016.49 1017.04 1017.54 1017.97 1018.34 1018.64 1018.88 1019.07 1019.23 1019.35 1019.45 1019.51 1019.54 1019.54 1019.53
1008.49 1007.86 1007.18 1006.51 1005.88 1005.32 1004.86 1004.50 1004.25 1004.09 1004.02 1004.03 1004.10 1004.24 1004.45 1004.72 1005.08 1005.52 1006.04 1006.64 1007.30 1008.00 1008.73 1009.45 1010.15 1010.82 1011.45 1012.05 1012.63 1013.22 1013.81 1014.41 1015.02 1015.63 1016.22 1016.77 1017.27 1017.70 1018.06 1018.37 1018.62 1018.83 1019.01 1019.17 1019.30 1019.40 1019.47 1019.51 1019.54
1008.15 1007.46 1006.78 1006.13 1005.55 1005.07 1004.69 1004.40 1004.17 1004.00 1003.88 1003.80 1003.77 1003.79 1003.90 1004.09 1004.39 1004.81 1005.32 1005.93 1006.60 1007.32 1008.06 1008.79 1009.51 1010.19 1010.85 1011.48 1012.11 1012.74 1013.38 1014.03 1014.67 1015.30 1015.90 1016.45 1016.94 1017.37 1017.73 1018.04 1018.31 1018.55 1018.77 1018.97 1019.15 1019.31 1019.44 1019.55 1019.63
1007.70 1006.97 1006.28 1005.66 1005.14 1004.73 1004.41 1004.17 1003.97 1003.79 1003.63 1003.47 1003.35 1003.28 1003.30 1003.42 1003.67 1004.05 1004.55 1005.16 1005.84 1006.57 1007.33 1008.09 1008.83 1009.55 1010.25 1010.93 1011.61 1012.29 1012.97 1013.65 1014.32 1014.96 1015.56 1016.10 1016.59 1017.02 1017.39 1017.72 1018.02 1018.29 1018.55 1018.80 1019.04 1019.26 1019.45 1019.62 1019.77
1007.13 1006.37 1005.68 1005.09 1004.62 1004.27 1004.01 1003.80 1003.62 1003.43 1003.23 1003.02 1002.84 1002.70 1002.65 1002.72 1002.92 1003.27 1003.76 1004.36 1005.05 1005.80 1006.57 1007.36 1008.15 1008.92 1009.68 1010.42 1011.16 1011.89 1012.61 1013.31 1013.98 1014.62 1015.22 1015.76 1016.25 1016.69 1017.08 1017.43 1017.76 1018.07 1018.37 1018.67 1018.96 1019.23 1019.49 1019.73 1019.93
1006.48 1005.70 1005.01 1004.45 1004.02 1003.70 1003.48 1003.29 1003.12 1002.92 1002.70 1002.46 1002.23 1002.05 1001.97 1002.00 1002.18 1002.50 1002.97 1003.57 1004.26 1005.02 1005.82 1006.65 1007.49 1008.33 1009.15 1009.96 1010.76 1011.53 1012.28 1012.99 1013.66 1014.29 1014.88 1015.42 1015.92 1016.38 1016.80 1017.18 1017.55 1017.90 1018.24 1018.57 1018.89 1019.21 1019.51 1019.80 1020.06
1005.81 1005.02 1004.34 1003.80 1003.40 1003.11 1002.89 1002.71 1002.52 1002.30 1002.05 1001.79 1001.54 1001.35 1001.25 1001.27 1001.44 1001.75 1002.21 1002.80 1003.49 1004.26 1005.09 1005.96 1006.86 1007.77 1008.66 1009.54 1010.40 1011.21 1011.97 1012.69 1013.35 1013.97 1014.54 1015.08 1015.59 1016.07 1016.52 1016.95 1017.36 1017.74 1018.11 1018.46 1018.81 1019.15 1019.48 1019.81 1020.11
1005.18 1004.41 1003.76 1003.24 1002.85 1002.55 1002.32 1002.10 1001.87 1001.62 1001.34 1001.05 1000.80 1000.61 1000.51 1000.54 1000.71 1001.03 1001.49 1002.06 1002.75 1003.53 1004.39 1005.30 1006.25 1007.23 1008.20 1009.14 1010.05 1010.89 1011.67 1012.38 1013.02 1013.62 1014.18 1014.71 1015.23 1015.74 1016.23 1016.70 1017.15 1017.57 1017.96 1018.33 1018.68 1019.02 1019.37 1019.71 1020.05
1004.63 1003.91 1003.30 1002.82 1002.43 1002.12 1001.83 1001.55 1001.25 1000.92 1000.58 1000.27 1000.00 999.82 999.75 999.80 1000.00 1000.32 1000.78 1001.36 1002.04 1002.82 1003.70 1004.64 1005.65 1006.68 1007.71 1008.72 1009.67 1010.54 1011.32 1012.02 1012.65 1013.22 1013.76 1014.29 1014.81 1015.35 1015.88 1016.39 1016.88 1017.33 1017.74 1018.12 1018.47 1018.81 1019.15 1019.50 1019.85
1004.17 1003.54 1003.01 1002.56 1002.18 1001.82 1001.46 1001.07 1000.66 1000.23 999.81 999.45 999.16 998.99 998.94 999.03 999.26 999.61 1000.08 1000.66 1001.34 1002.12 1003.00 1003.96 1005.00 1006.08 1007.17 1008.22 1009.21 1010.11 1010.90 1011.59 1012.19 1012.74 1013.26 1013.77 1014.31 1014.86 1015.43 1015.98 1016.52 1017.00 1017.44 1017.82 1018.17 1018.50 1018.83 1019.18 1019.53
1003.77 1003.26 1002.83 1002.44 1002.06 1001.64 1001.17 1000.65 1000.09 999.53 999.01 998.57 998.25 998.08 998.07 998.20 998.47 998.86 999.35 999.93 1000.61 1001.38 1002.26 1003.23 1004.29 1005.40 1006.53 1007.62 1008.65 1009.57 1010.38 1011.06 1011.65 1012.17 1012.66 1013.17 1013.70 1014.27 1014.87 1015.46 1016.04 1016.56 1017.02 1017.42 1017.78 1018.10 1018.42 1018.76 1019.13
1003.38 1003.02 1002.70 1002.37 1001.98 1001.50 1000.91 1000.24 999.51 998.79 998.13 997.61 997.25 997.08 997.09 997.28 997.60 998.04 998.56 999.15 999.83 1000.59 1001.45 1002.42 1003.48 1004.61 1005.76 1006.89 1007.96 1008.91 1009.73 1010.42 1011.00 1011.51 1011.99 1012.49 1013.01 1013.59 1014.21 1014.84 1015.45 1016.01 1016.51 1016.94 1017.30 1017.63 1017.96 1018.29 1018.66
1002.95 1002.75 1002.55 1002.27 1001.87 1001.31 1000.59 999.75 998.84 997.95 997.16 996.54 996.13 995.96 996.01 996.25 996.64 997.13 997.69 998.30 998.98 999.73 1000.57 1001.52 1002.57 1003.70 1004.87 1006.03 1007.13 1008.12 1008.98 1009.69 1010.28 1010.79 1011.26 1011.74 1012.27 1012.84 1013.47 1014.12 1014.77 1015.37 1015.90 1016.37 1016.76 1017.11 1017.45 1017.79 1018.16
1002.48 1002.41 1002.30 1002.06 1001.64 1000.99 1000.13 999.13 998.04 996.99 996.07 995.36 994.91 994.74 994.82 995.12 995.58 996.13 996.74 997.39 998.07 998.80 999.62 1000.54 1001.57 1002.69 1003.88 1005.06 1006.20 1007.23 1008.13 1008.88 1009.50 1010.02 1010.50 1010.97 1011.49 1012.06 1012.68 1013.35 1014.01 1014.65 1015.23 1015.73 1016.17 1016.55 1016.90 1017.25 1017.63
1001.99 1002.01 1001.95 1001.71 1001.24 1000.49 999.51 998.34 997.10 995.91 994.87 994.09 993.61 993.45 993.58 993.94 994.47 995.09 995.76 996.44 997.13 997.85 998.65 999.53 1000.53 1001.64 1002.81 1004.02 1005.19 1006.27 1007.22 1008.03 1008.69 1009.24 1009.73 1010.21 1010.71 1011.26 1011.88 1012.54 1013.22 1013.88 1014.50 1015.05 1015.53 1015.95 1016.33 1016.70 1017.09
1001.55 1001.59 1001.52 1001.24 1000.69 999.84 998.73 997.43 996.06 994.75 993.63 992.80 992.30 992.16 992.34 992.77 993.37 994.06 994.78 995.50 996.21 996.93 997.69 998.55 999.51 1000.59 1001.75 1002.96 1004.16 1005.29 1006.29 1007.16 1007.87 1008.47 1008.98 1009.46 1009.95 1010.49 1011.09 1011.73 1012.41 1013.09 1013.73 1014.33 1014.85 1015.32 1015.74 1016.14 1016.54
1001.23 1001.22 1001.07 1000.70 1000.05 999.09 997.86 996.46 995.00 993.61 992.44 991.58 991.09 990.97 991.19 991.68 992.34 993.10 993.88 994.63 995.36 996.08 996.83 997.65 998.58 999.62 1000.76 1001.96 1003.17 1004.33 1005.39 1006.31 1007.08 1007.72 1008.26 1008.75 1009.24 1009.76 1010.33 1010.95 1011.62 1012.30 1012.97 1013.60 1014.17 1014.68 1015.15 1015.58 1016.00
1001.09 1000.95 1000.67 1000.17 999.39 998.33 997.01 995.53 994.02 992.61 991.42 990.55 990.07 989.97 990.23 990.75 991.47 992.28 993.10 993.90 994.65 995.38 996.12 996.92 997.81 998.81 999.91 1001.09 1002.29 1003.46 1004.54 1005.51 1006.32 1007.01 1007.58 1008.09 1008.57 1009.08 1009.62 1010.23 1010.88 1011.56 1012.24 1012.90 1013.51 1014.08 1014.58 1015.05 1015.49
1001.12 1000.81 1000.36 999.71 998.81 997.65 996.28 994.77 993.24 991.83 990.65 989.80 989.33 989.24 989.50 990.05 990.78 991.62 992.48 993.31 994.09 994.84 995.58 996.36 997.22 998.18 999.23 1000.37 1001.54 1002.70 1003.79 1004.78 1005.63 1006.35 1006.95 1007.48 1007.97 1008.47 1009.00 1009.59 1010.22 1010.90 1011.60 1012.28 1012.93 1013.54 1014.09 1014.59 1015.05
Thickness
5722 5724 5725 5719 5703 5699 5707 5732 5753 5761 5769 5782 5786 5784 5778 5771 5763 5749 5766 5778 5776 5769 5763 5758 5755 5753 5750 5748 5746 5743 5741 5739 5737 5735 5734 5732 5730 5728 5727 5725 5724 5723 5721 5720 5718 5716 5714 5712 5710
5718 5723 5717 5707 5694 5692 5712 5736 5747 5760 5772 5779 5779 5779 5775 5766 5768 5765 5769 5773 5771 5766 5760 5756 5752 5750 5747 5745 5743 5740 5738 5736 5734 5732 5730 5729 5727 5725 5724 5722 5720 5719 5717 5715 5713 5711 5709 5707 5705
5713 5717 5704 5698 5696 5702 5721 5747 5754 5765 5772 5771 5768 5773 5769 5764 5767 5767 5772 5772 5767 5762 5756 5752 5749 5747 5744 5742 5740 5737 5735 5733 5731 5729 5727 5725 5724 5722 5720 5718 5716 5714 5712 5710 5708 5706 5704 5702 5700
5705 5702 5699 5695 5700 5720 5734 5750 5759 5758 5762 5767 5763 5758 5764 5770 5774 5773 5772 5769 5763 5758 5753 5748 5746 5743 5741 5739 5737 5734 5732 5730 5728 5726 5724 5722 5720 5718 5716 5714 5712 5710 5708 5706 5704 5702 5700 5697 5695
5697 5690 5682 5687 5703 5725 5743 5755 5757 5752 5752 5758 5758 5751 5751 5764 5771 5769 5767 5764 5759 5754 5749 5744 5742 5740 5738 5736 5733 5731 5729 5727 5725 5723 5721 5719 5716 5714 5712 5710 5708 5706 5704 5702 5700 5698 5695 5693 5690
5680 5683 5677 5683 5703 5725 5740 5753 5753 5749 5750 5755 5755 5748 5745 5758 5760 5760 5762 5759 5756 5752 5746 5741 5739 5737 5735 5733 5730 5728 5726 5724 5722 5720 5718 5715 5713 5711 5708 5706 5704 5702 5700 5698 5696 5693 5691 5688 5686
5672 5672 5676 5690 5703 5719 5738 5750 5747 5744 5745 5752 5758 5745 5741 5750 5755 5757 5757 5755 5753 5749 5743 5738 5735 5733 5731 5729 5727 5725 5723 5721 5719 5717 5715 5712 5710 5707 5705 5702 5700 5698 5696 5694 5691 5689 5686 5684 5681
5674 5669 5675 5687 5698 5714 5738 5747 5750 5746 5746 5761 5761 5745 5737 5748 5754 5753 5752 5750 5748 5744 5740 5736 5733 5730 5728 5726 5724 5722 5720 5718 5716 5714 5711 5709 5706 5704 5701 5699 5696 5694 5692 5689 5687 5684 5682 5679 5677
5667 5655 5666 5686 5698 5713 5733 5735 5744 5752 5749 5753 5755 5754 5755 5754 5751 5746 5743 5742 5741 5739 5737 5734 5732 5729 5727 5724 5721 5719 5717 5715 5713 5710 5708 5706 5703 5701 5698 5695 5693 5690 5688 5685 5683 5680 5677 5675 5672
5653 5651 5672 5694 5706 5713 5724 5728 5734 5735 5733 5737 5739 5745 5748 5747 5745 5741 5738 5737 5736 5735 5735 5734 5732 5729 5726 5723 5720 5717 5715 5712 5710 5708 5706 5703 5701 5698 5695 5692 5689 5687 5684 5681 5679 5676 5674 5671 5669
5653 5658 5675 5690 5702 5709 5713 5720 5729 5724 5720 5731 5731 5732 5736 5738 5738 5737 5737 5737 5737 5736 5735 5734 5732 5729 5726 5723 5719 5716 5714 5711 5709 5707 5704 5702 5700 5696 5693 5689 5686 5683 5680 5678 5675 5673 5671 5668 5666
5649 5661 5672 5683 5693 5699 5704 5711 5716 5720 5726 5740 5742 5738 5734 5732 5733 5735 5735 5736 5735 5734 5733 5733 5732 5729 5726 5723 5720 5717 5714 5711 5709 5706 5703 5701 5698 5695 5691 5687 5683 5681 5678 5675 5672 5670 5668 5665 5663
5639 5653 5667 5677 5684 5691 5697 5700 5706 5715 5729 5738 5740 5736 5733 5732 5733 5736 5737 5736 5735 5733 5732 5732 5731 5728 5726 5723 5720 5717 5714 5711 5709 5706 5703 5700 5697 5693 5690 5686 5682 5679 5676 5673 5670 5667 5665 5662 5659
5636 5644 5654 5665 5674 5681 5683 5691 5697 5710 5724 5727 5729 5728 5730 5732 5733 5733 5734 5735 5735 5733 5732 5731 5730 5728 5725 5722 5719 5717 5714 5711 5708 5705 5702 5699 5695 5692 5688 5685 5681 5678 5674 5671 5668 5665 5662 5658 5655
5625 5628 5639 5654 5665 5673 5673 5673 5690 5707 5715 5717 5720 5724 5727 5731 5733 5734 5737 5738 5738 5735 5733 5731 5729 5727 5723 5720 5718 5716 5713 5710 5707 5704 5700 5697 5694 5690 5686 5683 5679 5675 5672 5668 5665 5661 5658 5654 5650
5608 5610 5618 5645 5656 5665 5658 5661 5689 5703 5706 5708 5715 5720 5724 5729 5733 5737 5739 5739 5739 5736 5733 5730 5728 5725 5722 5719 5717 5714 5712 5709 5706 5702 5699 5695 5692 5688 5684 5680 5676 5673 5669 5665 5661 5657 5653 5649 5645
5591 5599 5613 5634 5651 5656 5654 5661 5685 5699 5701 5704 5710 5717 5722 5726 5731 5736 5739 5740 5739 5737 5734 5730 5727 5725 5721 5718 5715 5713 5710 5707 5704 5701 5697 5694 5690 5686 5682 5678 5674 5670 5666 5661 5657 5653 5649 5644 5640
5588 5601 5613 5625 5646 5648 5649 5660 5678 5692 5697 5700 5707 5714 5720 5724 5731 5737 5739 5740 5739 5737 5734 5730 5726 5723 5720 5716 5713 5710 5707 5705 5703 5700 5696 5693 5689 5685 5680 5675 5671 5667 5662 5657 5653 5649 5645 5640 5636
5589 5598 5606 5623 5641 5639 5644 5653 5668 5681 5688 5695 5701 5709 5716 5724 5733 5737 5739 5739 5737 5735 5732 5730 5725 5722 5719 5715 5711 5708 5705 5703 5701 5698 5695 5691 5687 5683 5678 5673 5669 5665 5660 5655 5650 5645 5640 5635 5631
5574 5581 5595 5613 5630 5632 5634 5645 5662 5675 5683 5692 5698 5706 5714 5721 5728 5733 5736 5736 5735 5734 5732 5730 5726 5723 5720 5717 5713 5709 5705 5701 5699 5696 5693 5690 5686 5682 5677 5672 5667 5662 5657 5652 5648 5643 5636 5631 5627
5562 5572 5586 5598 5612 5621 5621 5628 5649 5669 5681 5690 5698 5706 5714 5719 5724 5729 5732 5734 5734 5734 5733 5731 5728 5724 5721 5716 5710 5705 5700 5697 5694 5692 5690 5688 5685 5680 5676 5671 5666 5660 5655 5650 5645 5640 5634 5627 5622
5554 5575 5584 5589 5588 5593 5603 5603 5638 5659 5670 5682 5692 5701 5709 5717 5724 5728 5731 5732 5733 5734 5734 5731 5728 5724 5720 5715 5710 5705 5702 5699 5697 5694 5690 5686 5683 5679 5674 5669 5664 5659 5654 5648 5643 5638 5632 5625 5618
5554 5570 5574 5579 5579 5580 5592 5594 5626 5655 5661 5678 5691 5701 5708 5715 5721 5726 5730 5732 5734 5734 5732 5729 5726 5722 5719 5715 5711 5706 5702 5699 5695 5691 5687 5684 5681 5677 5673 5668 5663 5657 5652 5647 5641 5636 5630 5624 5617
5550 5554 5559 5563 5562 5561 5585 5587 5611 5646 5667 5681 5692 5701 5708 5714 5719 5724 5728 5730 5730 5730 5728 5726 5722 5720 5717 5713 5709 5705 5702 5697 5693 5690 5686 5682 5679 5675 5671 5666 5661 5656 5650 5645 5639 5634 5628 5621 5615
5535 5532 5533 5538 5543 5560 5590 5587 5610 5654 5675 5684 5692 5700 5708 5712 5715 5718 5721 5723 5724 5724 5724 5722 5719 5717 5715 5711 5708 5705 5701 5697 5694 5690 5686 5682 5678 5673 5670 5665 5660 5654 5649 5643 5637 5631 5625 5619 5612
5529 5529 5532 5543 5553 5571 5588 5590 5622 5655 5672 5684 5691 5698 5704 5708 5712 5715 5718 5719 5720 5721 5721 5719 5717 5714 5712 5709 5707 5704 5700 5696 5693 5690 5687 5682 5678 5674 5669 5663 5658 5652 5646 5640 5634 5628 5622 5615 5609
5522 5526 5541 5544 5557 5565 5581 5605 5629 5651 5659 5669 5679 5687 5693 5702 5707 5710 5713 5715 5717 5717 5718 5717 5715 5712 5710 5708 5705 5701 5698 5695 5692 5689 5685 5681 5677 5672 5666 5661 5655 5649 5643 5637 5631 5625 5618 5612 5605
5522 5528 5528 5529 5540 5554 5577 5599 5617 5638 5649 5662 5670 5677 5686 5695 5701 5705 5709 5711 5714 5715 5714 5713 5711 5709 5708 5706 5703 5700 5697 5694 5690 5686 5682 5679 5674 5669 5664 5658 5652 5646 5640 5634 5627 5621 5615 5608 5602
5511 5514 5519 5526 5539 5552 5567 5596 5635 5643 5651 5659 5668 5675 5681 5687 5693 5698 5702 5706 5708 5709 5708 5707 5707 5705 5703 5701 5699 5696 5693 5690 5686 5682 5679 5675 5671 5666 5660 5655 5649 5643 5636 5630 5624 5617 5611 5604 5597
5507 5510 5512 5517 5532 5552 5567 5592 5637 5642 5648 5654 5660 5667 5674 5679 5685 5690 5694 5696 5698 5700 5702 5702 5702 5701 5700 5698 5695 5692 5689 5685 5681 5678 5675 5671 5666 5662 5657 5651 5645 5638 5633 5626 5620 5613 5606 5600 5593